IN3APK-3 Weather Reports


time (UTC)temp
C
wind
direction
speed
KPH
gust
KPH
rain 1hr
cm
rain 24hr
cm
rain mn
cm
humidity
%
barometer
mb
20260507224159 10 0.0 0.0 0.00 0.00 0.00 54 1009.8
20260507223107 10 0.0 0.0 0.00 0.00 0.00 54 1009.7
20260507222015 10 0.0 0.0 0.00 0.00 0.00 54 1009.7
20260507220923 10 0.0 0.0 0.00 0.00 0.00 53 1009.8
20260507215830 10 0.0 0.0 0.00 0.00 0.00 53 1009.6
20260507214738 10 0.0 0.0 0.00 0.00 0.00 53 1009.6
20260507212554 10 0.0 0.0 0.00 0.00 0.00 53 1009.4
20260507211501 10 0.0 0.0 0.00 0.00 0.00 53 1009.3
20260507210409 9 0.0 0.0 0.00 0.00 0.00 53 1009.3
20260507205317 10 0.0 0.0 0.00 0.00 0.00 52 1009.3
20260507204225 10 0.0 0.0 0.00 0.00 0.00 52 1009.2
20260507203133 10 0.0 0.0 0.00 0.00 0.00 51 1009.2
20260507202040 10 0.0 0.0 0.00 0.00 0.00 51 1009.1
20260507200948 10 0.0 0.0 0.00 0.00 0.00 50 1009.0
20260507195856 10 0.0 0.0 0.00 0.00 0.00 50 1009.0
20260507194804 10 0.0 0.0 0.00 0.00 0.00 50 1008.8
20260507193711 10 0.0 0.0 0.00 0.00 0.00 50 1008.7
20260507192619 11 0.0 0.0 0.00 0.00 0.00 50 1008.5
20260507191527 11 0.0 0.0 0.00 0.00 0.00 49 1008.3
20260507190435 11 0.0 0.0 0.00 0.00 0.00 49 1008.1
20260507185343 11 0.0 0.0 0.00 0.00 0.00 48 1008.0
20260507184251 12 0.0 0.0 0.00 0.00 0.00 48 1007.8
20260507183159 12 0.0 0.0 0.00 0.00 0.00 47 1007.7
20260507182108 13 0.0 0.0 0.00 0.00 0.00 46 1007.5
20260507181016 13 0.0 0.0 0.00 0.00 0.00 45 1007.3
20260507175924 15 0.0 0.0 0.00 0.00 0.00 45 1007.1
20260507174833 16 0.0 0.0 0.00 0.00 0.00 44 1006.8
20260507171601 22 0.0 0.0 0.00 0.00 0.00 37 1006.3
20260507170510 25 0.0 0.0 0.00 0.00 0.00 35 1006.1
20260507164327 26 0.0 0.0 0.00 0.00 0.00 34 1005.9
20260507163235 26 0.0 0.0 0.00 0.00 0.00 34 1005.9
20260507162143 25 0.0 0.0 0.00 0.00 0.00 35 1005.9
20260507161051 25 0.0 0.0 0.00 0.00 0.00 34 1005.8
20260507160002 28 0.0 0.0 0.00 0.00 0.00 33 1005.8
20260507154910 29 0.0 0.0 0.00 0.00 0.00 33 1005.7
20260507153819 31 0.0 0.0 0.00 0.00 0.00 32 1005.6
20260507152726 28 0.0 0.0 0.00 0.00 0.00 34 1005.7
20260507151634 29 0.0 0.0 0.00 0.00 0.00 33 1005.6
20260507150542 29 0.0 0.0 0.00 0.00 0.00 34 1005.6
20260507145450 29 0.0 0.0 0.00 0.00 0.00 35 1005.7
20260507144358 29 0.0 0.0 0.00 0.00 0.00 35 1005.7
20260507143306 28 0.0 0.0 0.00 0.00 0.00 36 1005.8
20260507142214 28 0.0 0.0 0.00 0.00 0.00 36 1005.9
20260507141122 27 0.0 0.0 0.00 0.00 0.00 36 1005.9
20260507140029 26 0.0 0.0 0.00 0.00 0.00 39 1006.0
20260507134936 24 0.0 0.0 0.00 0.00 0.00 42 1006.0
20260507133842 22 0.0 0.0 0.00 0.00 0.00 46 1006.1
20260507132747 18 0.0 0.0 0.00 0.00 0.00 52 1006.2
20260507131655 18 0.0 0.0 0.00 0.00 0.00 52 1006.4
20260507125507 15 0.0 0.0 0.00 0.00 0.00 58 1006.5
20260507124414 14 0.0 0.0 0.00 0.00 0.00 57 1006.5
20260507123323 15 0.0 0.0 0.00 0.00 0.00 56 1006.7
20260507122232 17 0.0 0.0 0.00 0.00 0.00 55 1006.6
20260507121141 18 0.0 0.0 0.00 0.00 0.00 53 1006.4
20260507120050 19 0.0 0.0 0.00 0.00 0.00 53 1006.3
20260507114957 17 0.0 0.0 0.00 0.00 0.00 58 1006.5
20260507112812 16 0.0 0.0 0.00 0.00 0.00 58 1006.3
20260507111721 17 0.0 0.0 0.00 0.00 0.00 57 1006.3
20260507110630 18 0.0 0.0 0.00 0.00 0.00 57 1006.4
20260507105538 19 0.0 0.0 0.00 0.00 0.00 57 1006.5
20260507104446 20 0.0 0.0 0.00 0.00 0.00 57 1006.4
20260507102306 20 0.0 0.0 0.00 0.00 0.00 58 1006.5
20260507101209 18 0.0 0.0 0.00 0.00 0.00 60 1006.7
20260507100116 17 0.0 0.0 0.00 0.00 0.00 61 1006.8
20260507095023 16 0.0 0.0 0.00 0.00 0.00 63 1006.9
20260507093930 15 0.0 0.0 0.00 0.00 0.00 65 1006.9
20260507092837 15 0.0 0.0 0.00 0.00 0.00 65 1007.0
20260507091745 15 0.0 0.0 0.00 0.00 0.00 65 1006.9
20260507090653 15 0.0 0.0 0.00 0.00 0.00 65 1007.0
20260507085601 15 0.0 0.0 0.00 0.00 0.00 65 1007.0
20260507084509 15 0.0 0.0 0.00 0.00 0.00 65 1007.1
20260507083416 13 0.0 0.0 0.00 0.00 0.00 67 1007.0
20260507082324 13 0.0 0.0 0.00 0.00 0.00 67 1007.0
20260507081232 13 0.0 0.0 0.00 0.00 0.00 67 1007.0
20260507080139 12 0.0 0.0 0.00 0.00 0.00 68 1007.1
20260507075047 12 0.0 0.0 0.00 0.00 0.00 69 1007.1
20260507073954 11 0.0 0.0 0.00 0.00 0.00 69 1007.0
20260507072902 11 0.0 0.0 0.00 0.00 0.00 70 1006.9
20260507071810 11 0.0 0.0 0.00 0.00 0.00 70 1007.0
20260507070717 11 0.0 0.0 0.00 0.00 0.00 71 1006.9
20260507065625 10 0.0 0.0 0.00 0.00 0.00 71 1006.8
20260507064533 10 0.0 0.0 0.00 0.00 0.00 71 1006.8
20260507063440 10 0.0 0.0 0.00 0.00 0.00 71 1006.7
20260507062348 10 0.0 0.0 0.00 0.00 0.00 72 1006.7
20260507061256 9 0.0 0.0 0.00 0.00 0.00 72 1006.6
20260507060203 8 0.0 0.0 0.00 0.00 0.00 72 1006.7
20260507055110 8 0.0 0.0 0.00 0.00 0.00 73 1006.8
20260507054018 8 0.0 0.0 0.00 0.00 0.00 73 1006.7
20260507052925 8 0.0 0.0 0.00 0.00 0.00 73 1006.7
20260507051833 8 0.0 0.0 0.00 0.00 0.00 73 1006.7
20260507050741 7 0.0 0.0 0.00 0.00 0.00 73 1006.5
20260507045649 7 0.0 0.0 0.00 0.00 0.00 73 1006.4
20260507044557 7 0.0 0.0 0.00 0.00 0.00 73 1006.2
20260507043504 7 0.0 0.0 0.00 0.00 0.00 73 1006.1
20260507042412 7 0.0 0.0 0.00 0.00 0.00 73 1006.0
20260507041320 7 0.0 0.0 0.00 0.00 0.00 73 1005.9
20260507040228 7 0.0 0.0 0.00 0.00 0.00 73 1005.8
20260507035136 7 0.0 0.0 0.00 0.00 0.00 73 1005.7
20260507034044 7 0.0 0.0 0.00 0.00 0.00 73 1005.6
20260507031859 7 0.0 0.0 0.00 0.00 0.00 73 1005.6
20260507030807 7 0.0 0.0 0.00 0.00 0.00 73 1005.7
20260507025715 7 0.0 0.0 0.00 0.00 0.00 74 1005.8
20260507024623 7 0.0 0.0 0.00 0.00 0.00 73 1005.7
20260507023531 7 0.0 0.0 0.00 0.00 0.00 73 1005.7
20260507022439 7 0.0 0.0 0.00 0.00 0.00 73 1005.7
20260507021347 7 0.0 0.0 0.00 0.00 0.00 73 1005.8
20260507020254 7 0.0 0.0 0.00 0.00 0.00 73 1005.8
20260507015202 7 0.0 0.0 0.00 0.00 0.00 73 1005.6
20260507014110 7 0.0 0.0 0.00 0.00 0.00 73 1005.6
20260507013018 7 0.0 0.0 0.00 0.00 0.00 73 1005.6
20260507011926 7 0.0 0.0 0.00 0.00 0.00 73 1005.7
20260507010834 7 0.0 0.0 0.00 0.00 0.00 73 1005.7
20260507005741 7 0.0 0.0 0.00 0.00 0.00 73 1005.8
20260507004649 7 0.0 0.0 0.00 0.00 0.00 73 1005.7
20260507003557 7 0.0 0.0 0.00 0.00 0.00 73 1005.8
20260507001412 7 0.0 0.0 0.00 0.00 0.00 73 1005.7
20260507000321 7 0.0 0.0 0.00 0.00 0.00 73 1005.6
20260506235228 7 0.0 0.0 0.00 0.00 0.00 73 1005.6
20260506234135 7 0.0 0.0 0.00 0.00 0.00 73 1005.6
20260506233043 7 0.0 0.0 0.00 0.00 0.00 74 1005.6
20260506231951 7 0.0 0.0 0.00 0.00 0.00 74 1005.7
20260506230859 7 0.0 0.0 0.00 0.00 0.00 74 1005.7
20260506225807 7 0.0 0.0 0.00 0.00 0.00 74 1005.6